Weather Service Report


927 
ASUS41 KCLE 291510
RWRCLE
OHIO REGIONAL WEATHER ROUNDUP
NATIONAL WEATHER SERVICE WILMINGTON, OH
1100 AM EDT TUE JUL 29 2014

NOTE: "FAIR" INDICATES FEW OR NO CLOUDS BELOW 12,000 FEET WITH NO
SIGNIFICANT WEATHER AND/OR OBSTRUCTIONS TO VISIBILITY.

OHZ001>008-015>018-024>027-034-035-043-044-291600-
   NORTHWEST OHIO
  
CITY           SKY/WX    TMP DP  RH WIND       PRES   REMARKS
DEFIANCE       MOSUNNY   66  49  54 VRB5      30.05F                  
FINDLAY        SUNNY     66  50  56 W9        30.05R                  
TOLEDO EXPRESS SUNNY     66  49  54 W7        30.04S                  
TOLEDO METCALF SUNNY     66  48  52 VRB6      30.04S                  
LIMA           SUNNY     64  50  60 W5        30.06S                  
$$
 
OHZ009>014-019>023-028>033-038-089-291600-
   NORTHEAST OHIO
  
CITY           SKY/WX    TMP DP  RH WIND       PRES   REMARKS
CLE-HOPKINS    PTSUNNY   63  46  54 NW7       30.03S                  
CLE-LAKEFRONT  CLOUDY    65  49  56 NW10      30.00S                  
CUY CO. ARPT   CLOUDY    63  52  67 NW9       30.02R                  
LORAIN-ELYRIA  PTSUNNY   66  47  50 VRB5      30.03R                  
ASHTABULA      CLOUDY    63  51  65 NW7       30.01R                  
AKRON-CANTON   PTSUNNY   61  50  67 W5        30.03R                  
WOOSTER        PTSUNNY   65  49  56 N7        30.04R                  
MANSFIELD      PTSUNNY   62  49  62 NW8       30.05R                  
YOUNGSTOWN     CLOUDY    63  50  62 NW7       30.00S                  
$$
 
OHZ042-051>053-060>062-070>072-077>081-291600-
  SOUTHWEST OHIO
  
CITY           SKY/WX    TMP DP  RH WIND       PRES   REMARKS
CINC-COVINGTON MOSUNNY   63  51  65 NW3       30.08R                  
CINC-LUNKEN    PTSUNNY   65  54  67 N6        30.07F                  
HAMILTON       SUNNY     65  50  58 N9        30.08S                  
DAYTON         MOSUNNY   64  48  56 N7        30.08R                  
WRIGHT-PAT AFB SUNNY     63  49  59 N9        30.07R                  
DAYTON GENERAL SUNNY     63  48  58 N8        30.07R                  
WILMINGTON     CLOUDY    62  53  72 N7        30.06S                  
$$

OHZ036-037-039>041-045>050-054>059-063>069-073>076-082>088-291600-
  CENTRAL AND SOUTHEAST OHIO
  
CITY           SKY/WX    TMP DP  RH WIND       PRES   REMARKS
COLUMBUS       PTSUNNY   66  49  54 CALM      30.04S                  
OSU AIRPORT    CLOUDY    63  50  62 CALM      30.05R                  
BOLTON FIELD   PTSUNNY   63  54  72 NW6       30.06R                  
RICKENBACK AFB CLOUDY    65  48  53 N3        30.05R                  
NEWARK         NOT AVBL                                               
MARION         MOSUNNY   63  48  58 N8        30.06R                  
LANCASTER      PTSUNNY   65  51  60 NE5       30.05R                  
ZANESVILLE     CLOUDY    63  47  55 N5        30.04R                  
NEW PHILLY     PTSUNNY   62  52  69 VRB5      30.03S                  
$$


997 
ASUS41 KCLE 291510
RWRCLE
OHIO REGIONAL WEATHER ROUNDUP
NATIONAL WEATHER SERVICE CLEVELAND, OH
1100 AM EDT TUE JUL 29 2014

NOTE: "FAIR" INDICATES FEW OR NO CLOUDS BELOW 12,000 FEET WITH NO
SIGNIFICANT WEATHER AND/OR OBSTRUCTIONS TO VISIBILITY.

OHZ001>008-015>018-024>027-034-035-043-044-291600-
   NORTHWEST OHIO
  
CITY           SKY/WX    TMP DP  RH WIND       PRES   REMARKS
DEFIANCE       MOSUNNY   66  49  54 VRB5      30.05F                  
FINDLAY        SUNNY     66  50  56 W9        30.05R                  
TOLEDO EXPRESS SUNNY     66  49  54 W7        30.04S                  
TOLEDO EXEC    SUNNY     66  48  52 VRB6      30.04S                  
LIMA           SUNNY     64  50  60 W5        30.06S                  
$$

OHZ009>014-019>023-028>033-038-089-291600-
   NORTHEAST OHIO
  
CITY           SKY/WX    TMP DP  RH WIND       PRES   REMARKS
CLE-HOPKINS    PTSUNNY   63  46  54 NW7       30.03S                  
CLE-LAKEFRONT  CLOUDY    65  49  56 NW10      30.00S                  
CUY CO. ARPT   CLOUDY    63  52  67 NW9       30.02R                  
LORAIN-ELYRIA  PTSUNNY   66  47  50 VRB5      30.03R                  
ASHTABULA      CLOUDY    63  51  65 NW7       30.01R                  
AKRON-CANTON   PTSUNNY   61  50  67 W5        30.03R                  
WOOSTER        PTSUNNY   65  49  56 N7        30.04R                  
MANSFIELD      PTSUNNY   62  49  62 NW8       30.05R                  
YOUNGSTOWN     CLOUDY    63  50  62 NW7       30.00S                  
$$

OHZ042-051>053-060>062-070>072-077>081-291600-
  SOUTHWEST OHIO
  
CITY           SKY/WX    TMP DP  RH WIND       PRES   REMARKS
CINC-COVINGTON MOSUNNY   63  51  65 NW3       30.08R                  
CINC-LUNKEN    PTSUNNY   65  54  67 N6        30.07F                  
HAMILTON       SUNNY     65  50  58 N9        30.08S                  
DAYTON         MOSUNNY   64  48  56 N7        30.08R                  
WRIGHT-PAT AFB SUNNY     63  49  59 N9        30.07R                  
DAYTON GENERAL SUNNY     63  48  58 N8        30.07R                  
WILMINGTON     CLOUDY    62  53  72 N7        30.06S                  
$$

OHZ036-037-039>041-045>050-054>059-063>069-073>076-082>088-291600-
  CENTRAL AND SOUTHEAST OHIO
  
CITY           SKY/WX    TMP DP  RH WIND       PRES   REMARKS
COLUMBUS       PTSUNNY   66  49  54 CALM      30.04S                  
OSU AIRPORT    CLOUDY    63  50  62 CALM      30.05R                  
BOLTON FIELD   PTSUNNY   63  54  72 NW6       30.06R                  
RICKENBACK AFB CLOUDY    65  48  53 N3        30.05R                  
NEWARK         NOT AVBL                                               
MARION         MOSUNNY   63  48  58 N8        30.06R                  
LANCASTER      PTSUNNY   65  51  60 NE5       30.05R                  
ZANESVILLE     CLOUDY    63  47  55 N5        30.04R                  
NEW PHILLY     PTSUNNY   62  52  69 VRB5      30.03S                  
$$

Return to Home page


Western Regional Climate Center, wrcc@dri.edu